Погода в Никитине

Россия / Нижегородская область     54°37′15″N   44°44′51″E
темп.,
°C
ветер,
м/с
пор.,
м/с
влажн.,
%
обл.,
%
осадки,
мм/ч
давл.,
гПа
погр.,
м
19 мая, ср
ср1900:00+20вюв615504 0.0 1012314
03:00+18вюв615450 0.0 1011258
06:00+17вюв6166384 0.0 1011312
09:00+23вюв7146321 0.0 1011542
12:00+26юв711485 0.0 10121398
15:00+27юв711495 0.0 10111678
18:00+24вюв612605 0.0 1010378
21:00+21вюв717625 0.0 1010466
20 мая, чт
чт2000:00+19вюв718635 0.0 1010529
03:00+15вюв37784 0.2 1010124
06:00+16юв388296 0.0 1010385
09:00+20юв577174 0.0 10091057
12:00+20ю6873100 2.5 10091059
15:00+16ююз5988100 4.6 1008459
18:00+18ююз3675100 0.9 1008434
21:00+13ю38905 1.6 1009160
21 мая, пт
пт2100:00+12ю399566 0.0 1009223
03:00+11ююз410965 0.0 1010249
06:00+13ююз41090100 0.0 1011407
09:00+14ююз5986100 0.1 1012557
12:00+18юз7106998 0.3 10131403
15:00+17юз796676 0.6 10141414
18:00+16зюз587451 0.1 1015921
21:00+13зюз37858 0.2 1018194
22 мая, сб
сб2200:00+13з2481100 0.0 1018101
03:00+12ююз2284100 0.0 101947
06:00+12ююв1284100 0.0 102059
09:00+13в0094100 2.1 1021157
12:00+12всв2298100 6.2 1021154
15:00+12всв2497100 11.5 1021211
18:00+12вюв4698100 2.7 1020267
21:00+11всв3698100 2.7 1020149
23 мая, вс
вс2300:00+11всв3898100 0.0 1020205
03:00+12в4997100 0.2 1019297
06:00+14вюв61394100 0.6 1017430
09:00+17в5786100 1.3 1015390
12:00+20юв4879100 0.0 1015530
15:00+25юв4866100 0.0 1013993
18:00+23юв4107714 0.0 1012311
21:00+20юв61678100 0.0 1010322